| time (UTC) | temp F | wind direction | speed MPH | gust MPH | rain 1hr in | rain 24hr in | rain mn in | humidity % | barometer mb |
| 20260505152649 | 74 | 140 | 3.0 | 8.0 | 0.00 | 0.00 | 0.00 | 50 | 1017.8 |
| 20260505152145 | 75 | 108 | 3.0 | 8.0 | 0.00 | 0.00 | 0.00 | 49 | 1017.8 |
| 20260505151640 | 74 | 90 | 7.0 | 10.0 | 0.00 | 0.00 | 0.00 | 51 | 1017.7 |
| 20260505151138 | 74 | 114 | 5.0 | 6.0 | 0.00 | 0.00 | 0.00 | 51 | 1017.7 |
| 20260505150634 | 74 | 116 | 4.0 | 9.0 | 0.00 | 0.00 | 0.00 | 52 | 1017.8 |
| 20260505150131 | 73 | 109 | 5.0 | 6.0 | 0.00 | 0.00 | 0.00 | 53 | 1017.7 |
| 20260505140559 | 70 | 162 | 9.0 | 12.0 | 0.00 | 0.00 | 0.00 | 57 | 1017.5 |
| 20260505125013 | 64 | 130 | 2.0 | 8.0 | 0.00 | 0.00 | 0.00 | 66 | 1017.6 |
| 20260505124510 | 64 | 121 | 3.0 | 6.0 | 0.00 | 0.00 | 0.00 | 66 | 1017.7 |
| 20260505124006 | 63 | 141 | 5.0 | 12.0 | 0.00 | 0.00 | 0.00 | 66 | 1017.7 |
| 20260505123502 | 63 | 125 | 6.0 | 8.0 | 0.00 | 0.00 | 0.00 | 66 | 1017.9 |
| 20260505122959 | 63 | 96 | 3.0 | 7.0 | 0.00 | 0.00 | 0.00 | 67 | 1017.7 |
| 20260505122456 | 62 | 101 | 2.0 | 7.0 | 0.00 | 0.00 | 0.00 | 67 | 1017.7 |
| 20260505121953 | 62 | 130 | 5.0 | 10.0 | 0.00 | 0.00 | 0.00 | 67 | 1017.7 |
| 20260505121449 | 62 | 77 | 1.0 | 6.0 | 0.00 | 0.00 | 0.00 | 69 | 1017.8 |
| 20260505120945 | 61 | 170 | 6.0 | 6.0 | 0.00 | 0.00 | 0.00 | 69 | 1017.8 |
| 20260505120442 | 61 | 123 | 4.0 | 6.0 | 0.00 | 0.00 | 0.00 | 69 | 1017.6 |
| 20260505115941 | 61 | 87 | 2.0 | 6.0 | 0.00 | 0.00 | 0.00 | 70 | 1017.6 |
| 20260505115437 | 61 | 128 | 4.0 | 6.0 | 0.00 | 0.00 | 0.00 | 70 | 1017.6 |
| 20260505114936 | 60 | 115 | 0.0 | 5.0 | 0.00 | 0.00 | 0.00 | 70 | 1017.5 |
| 20260505114432 | 59 | 113 | 4.0 | 4.0 | 0.00 | 0.00 | 0.00 | 73 | 1017.6 |
| 20260505113928 | 59 | 113 | 4.0 | 4.0 | 0.00 | 0.00 | 0.00 | 73 | 1017.5 |
| 20260505113425 | 59 | 113 | 4.0 | 4.0 | 0.00 | 0.00 | 0.00 | 73 | 1017.6 |
| 20260505112921 | 59 | 113 | 4.0 | 4.0 | 0.00 | 0.00 | 0.00 | 73 | 1017.5 |
| 20260505112419 | 57 | 74 | 2.0 | 2.0 | 0.00 | 0.00 | 0.00 | 75 | 1017.3 |
| 20260505111915 | 57 | 74 | 2.0 | 2.0 | 0.00 | 0.00 | 0.00 | 75 | 1017.3 |
| 20260505111415 | 57 | 113 | 2.0 | 4.0 | 0.00 | 0.00 | 0.00 | 75 | 1017.1 |
| 20260505110911 | 57 | 82 | 2.0 | 5.0 | 0.00 | 0.00 | 0.00 | 76 | 1017.1 |
| 20260505110408 | 56 | 85 | 3.0 | 4.0 | 0.00 | 0.00 | 0.00 | 76 | 1017.0 |
| 20260505101838 | 55 | 111 | 3.0 | 4.0 | 0.00 | 0.00 | 0.00 | 76 | 1016.5 |
| 20260505101334 | 56 | 109 | 4.0 | 4.0 | 0.00 | 0.00 | 0.00 | 76 | 1016.6 |
| 20260505100830 | 56 | 88 | 2.0 | 4.0 | 0.00 | 0.00 | 0.00 | 75 | 1016.6 |
| 20260505100327 | 56 | 103 | 3.0 | 5.0 | 0.00 | 0.00 | 0.00 | 75 | 1016.4 |
| 20260505095822 | 56 | 115 | 3.0 | 4.0 | 0.00 | 0.00 | 0.00 | 74 | 1016.1 |
| 20260505095320 | 56 | 110 | 2.0 | 4.0 | 0.00 | 0.00 | 0.00 | 74 | 1016.2 |
| 20260505094816 | 57 | 87 | 4.0 | 6.0 | 0.00 | 0.00 | 0.00 | 73 | 1016.0 |
| 20260505094313 | 56 | 95 | 2.0 | 6.0 | 0.00 | 0.00 | 0.00 | 74 | 1016.0 |
| 20260505093808 | 57 | 108 | 3.0 | 5.0 | 0.00 | 0.00 | 0.00 | 73 | 1016.1 |
| 20260505093307 | 57 | 98 | 3.0 | 4.0 | 0.00 | 0.00 | 0.00 | 73 | 1016.1 |
| 20260505092803 | 57 | 106 | 2.0 | 8.0 | 0.00 | 0.00 | 0.00 | 73 | 1016.1 |
| 20260505092304 | 57 | 103 | 2.0 | 4.0 | 0.00 | 0.00 | 0.00 | 73 | 1016.1 |
| 20260505091759 | 57 | 107 | 3.0 | 5.0 | 0.00 | 0.00 | 0.00 | 73 | 1016.2 |
| 20260505091256 | 57 | 129 | 5.0 | 6.0 | 0.00 | 0.00 | 0.00 | 72 | 1016.0 |
| 20260505090754 | 57 | 106 | 2.0 | 6.0 | 0.00 | 0.00 | 0.00 | 72 | 1016.0 |
| 20260505090252 | 57 | 124 | 5.0 | 5.0 | 0.00 | 0.00 | 0.00 | 72 | 1016.1 |
| 20260505085749 | 57 | 104 | 3.0 | 4.0 | 0.00 | 0.00 | 0.00 | 72 | 1016.1 |
| 20260505085247 | 57 | 98 | 3.0 | 6.0 | 0.00 | 0.00 | 0.00 | 72 | 1016.0 |
| 20260505084744 | 57 | 97 | 3.0 | 6.0 | 0.00 | 0.00 | 0.00 | 72 | 1015.9 |
| 20260505084243 | 57 | 90 | 2.0 | 5.0 | 0.00 | 0.00 | 0.00 | 71 | 1015.9 |
| 20260505083740 | 58 | 80 | 2.0 | 7.0 | 0.00 | 0.00 | 0.00 | 70 | 1015.8 |
| 20260505083236 | 58 | 112 | 4.0 | 5.0 | 0.00 | 0.00 | 0.00 | 70 | 1016.0 |
| 20260505082732 | 58 | 93 | 2.0 | 4.0 | 0.00 | 0.00 | 0.00 | 70 | 1016.0 |
| 20260505082230 | 58 | 135 | 2.0 | 5.0 | 0.00 | 0.00 | 0.00 | 70 | 1015.9 |
| 20260505081725 | 58 | 103 | 2.0 | 6.0 | 0.00 | 0.00 | 0.00 | 70 | 1015.8 |
| 20260505081223 | 58 | 94 | 2.0 | 6.0 | 0.00 | 0.00 | 0.00 | 70 | 1015.8 |
| 20260505080720 | 58 | 111 | 4.0 | 4.0 | 0.00 | 0.00 | 0.00 | 69 | 1015.8 |
| 20260505080215 | 58 | 90 | 3.0 | 6.0 | 0.00 | 0.00 | 0.00 | 69 | 1015.8 |
| 20260505075711 | 59 | 107 | 3.0 | 6.0 | 0.00 | 0.00 | 0.00 | 68 | 1015.8 |
| 20260505075209 | 59 | 120 | 4.0 | 6.0 | 0.00 | 0.00 | 0.00 | 68 | 1015.8 |
| 20260505074706 | 59 | 122 | 6.0 | 6.0 | 0.00 | 0.00 | 0.00 | 68 | 1015.7 |
| 20260505074203 | 59 | 102 | 4.0 | 8.0 | 0.00 | 0.00 | 0.00 | 68 | 1015.6 |
| 20260505073700 | 59 | 103 | 3.0 | 6.0 | 0.00 | 0.00 | 0.00 | 68 | 1015.7 |
| 20260505073158 | 59 | 116 | 4.0 | 5.0 | 0.00 | 0.00 | 0.00 | 68 | 1015.6 |
| 20260505072654 | 59 | 77 | 1.0 | 7.0 | 0.00 | 0.00 | 0.00 | 67 | 1015.6 |
| 20260505072151 | 59 | 120 | 5.0 | 6.0 | 0.00 | 0.00 | 0.00 | 67 | 1015.5 |
| 20260505071646 | 60 | 106 | 7.0 | 8.0 | 0.00 | 0.00 | 0.00 | 67 | 1015.6 |
| 20260505071144 | 60 | 123 | 3.0 | 5.0 | 0.00 | 0.00 | 0.00 | 67 | 1015.6 |
| 20260505070641 | 60 | 101 | 2.0 | 8.0 | 0.00 | 0.00 | 0.00 | 67 | 1015.6 |
| 20260505070137 | 60 | 133 | 7.0 | 8.0 | 0.00 | 0.00 | 0.00 | 67 | 1015.6 |
| 20260505065633 | 60 | 112 | 3.0 | 7.0 | 0.00 | 0.00 | 0.00 | 66 | 1015.6 |
| 20260505065130 | 60 | 99 | 2.0 | 5.0 | 0.00 | 0.00 | 0.00 | 66 | 1015.6 |
| 20260505064627 | 60 | 108 | 3.0 | 8.0 | 0.00 | 0.00 | 0.00 | 66 | 1015.6 |
| 20260505064125 | 60 | 99 | 3.0 | 9.0 | 0.00 | 0.00 | 0.00 | 65 | 1015.5 |
| 20260505063622 | 61 | 115 | 3.0 | 10.0 | 0.00 | 0.00 | 0.00 | 65 | 1015.6 |
| 20260505063118 | 61 | 126 | 4.0 | 7.0 | 0.00 | 0.00 | 0.00 | 65 | 1015.6 |
| 20260505062615 | 61 | 109 | 3.0 | 4.0 | 0.00 | 0.00 | 0.00 | 64 | 1015.6 |
| 20260505062112 | 61 | 135 | 6.0 | 9.0 | 0.00 | 0.00 | 0.00 | 64 | 1015.7 |
| 20260505061609 | 61 | 87 | 2.0 | 9.0 | 0.00 | 0.00 | 0.00 | 63 | 1015.5 |
| 20260505061108 | 61 | 127 | 3.0 | 10.0 | 0.00 | 0.00 | 0.00 | 64 | 1015.5 |
| 20260505060605 | 61 | 123 | 5.0 | 11.0 | 0.00 | 0.00 | 0.00 | 64 | 1015.7 |
| 20260505055556 | 62 | 112 | 4.0 | 9.0 | 0.00 | 0.00 | 0.00 | 63 | 1015.7 |
| 20260505055053 | 62 | 109 | 4.0 | 6.0 | 0.00 | 0.00 | 0.00 | 63 | 1015.6 |
| 20260505054550 | 62 | 105 | 4.0 | 10.0 | 0.00 | 0.00 | 0.00 | 63 | 1015.5 |
| 20260505054049 | 62 | 148 | 2.0 | 8.0 | 0.00 | 0.00 | 0.00 | 63 | 1015.5 |
| 20260505053545 | 62 | 131 | 7.0 | 13.0 | 0.00 | 0.00 | 0.00 | 62 | 1015.7 |
| 20260505053042 | 62 | 102 | 5.0 | 7.0 | 0.00 | 0.00 | 0.00 | 63 | 1015.7 |
| 20260505052539 | 62 | 111 | 5.0 | 13.0 | 0.00 | 0.00 | 0.00 | 62 | 1015.8 |
| 20260505052037 | 62 | 119 | 4.0 | 7.0 | 0.00 | 0.00 | 0.00 | 63 | 1015.8 |
| 20260505051533 | 62 | 119 | 4.0 | 9.0 | 0.00 | 0.00 | 0.00 | 62 | 1015.7 |
| 20260505051032 | 62 | 98 | 2.0 | 9.0 | 0.00 | 0.00 | 0.00 | 63 | 1015.7 |
| 20260505050529 | 62 | 80 | 5.0 | 10.0 | 0.00 | 0.00 | 0.00 | 62 | 1015.8 |
| 20260505041457 | 64 | 114 | 4.0 | 6.0 | 0.00 | 0.00 | 0.00 | 61 | 1015.6 |
| 20260505040954 | 64 | 112 | 7.0 | 12.0 | 0.00 | 0.00 | 0.00 | 60 | 1015.7 |
| 20260505040452 | 64 | 103 | 4.0 | 10.0 | 0.00 | 0.00 | 0.00 | 60 | 1015.6 |
| 20260505035948 | 64 | 103 | 6.0 | 8.0 | 0.00 | 0.00 | 0.00 | 60 | 1015.7 |
| 20260505035444 | 64 | 102 | 8.0 | 10.0 | 0.00 | 0.00 | 0.00 | 60 | 1015.7 |
| 20260505034942 | 64 | 124 | 5.0 | 8.0 | 0.00 | 0.00 | 0.00 | 60 | 1015.6 |
| 20260505034438 | 64 | 102 | 5.0 | 8.0 | 0.00 | 0.00 | 0.00 | 59 | 1015.8 |
| 20260505033935 | 65 | 129 | 3.0 | 13.0 | 0.00 | 0.00 | 0.00 | 59 | 1015.5 |
| 20260505033432 | 65 | 107 | 3.0 | 6.0 | 0.00 | 0.00 | 0.00 | 59 | 1015.4 |
| 20260505032930 | 65 | 103 | 7.0 | 9.0 | 0.00 | 0.00 | 0.00 | 59 | 1015.6 |
| 20260505032427 | 65 | 75 | 4.0 | 9.0 | 0.00 | 0.00 | 0.00 | 59 | 1015.6 |
| 20260505031923 | 65 | 112 | 6.0 | 13.0 | 0.00 | 0.00 | 0.00 | 58 | 1015.5 |
| 20260505031420 | 66 | 89 | 4.0 | 15.0 | 0.00 | 0.00 | 0.00 | 58 | 1015.6 |
| 20260505030917 | 66 | 87 | 6.0 | 8.0 | 0.00 | 0.00 | 0.00 | 58 | 1015.5 |
| 20260505030413 | 66 | 96 | 4.0 | 11.0 | 0.00 | 0.00 | 0.00 | 58 | 1015.4 |
| 20260505025909 | 66 | 124 | 7.0 | 9.0 | 0.00 | 0.00 | 0.00 | 58 | 1015.6 |
| 20260505025406 | 66 | 103 | 3.0 | 13.0 | 0.00 | 0.00 | 0.00 | 58 | 1015.4 |
| 20260505024905 | 66 | 88 | 3.0 | 9.0 | 0.00 | 0.00 | 0.00 | 58 | 1015.6 |
| 20260505024402 | 66 | 102 | 2.0 | 6.0 | 0.00 | 0.00 | 0.00 | 57 | 1015.3 |
| 20260505023859 | 67 | 135 | 12.0 | 15.0 | 0.00 | 0.00 | 0.00 | 57 | 1015.5 |
| 20260505023356 | 67 | 115 | 4.0 | 9.0 | 0.00 | 0.00 | 0.00 | 56 | 1015.5 |
| 20260505022853 | 67 | 87 | 6.0 | 12.0 | 0.00 | 0.00 | 0.00 | 55 | 1015.5 |
| 20260505022350 | 67 | 113 | 8.0 | 9.0 | 0.00 | 0.00 | 0.00 | 54 | 1015.5 |
| 20260505021848 | 67 | 115 | 5.0 | 9.0 | 0.00 | 0.00 | 0.00 | 53 | 1015.3 |
| 20260505021344 | 67 | 80 | 4.0 | 7.0 | 0.00 | 0.00 | 0.00 | 52 | 1015.3 |
| 20260505020840 | 68 | 131 | 8.0 | 10.0 | 0.00 | 0.00 | 0.00 | 51 | 1015.3 |
| 20260505020336 | 68 | 82 | 4.0 | 10.0 | 0.00 | 0.00 | 0.00 | 50 | 1015.3 |
| 20260505015833 | 68 | 111 | 4.0 | 10.0 | 0.00 | 0.00 | 0.00 | 49 | 1015.1 |
| 20260505015330 | 68 | 109 | 4.0 | 6.0 | 0.00 | 0.00 | 0.00 | 45 | 1015.0 |
| 20260505014827 | 68 | 73 | 6.0 | 8.0 | 0.00 | 0.00 | 0.00 | 45 | 1015.1 |
| 20260505014324 | 68 | 86 | 3.0 | 6.0 | 0.00 | 0.00 | 0.00 | 45 | 1015.2 |
| 20260505013820 | 67 | 92 | 3.0 | 5.0 | 0.00 | 0.00 | 0.00 | 45 | 1014.9 |
| 20260505013318 | 68 | 95 | 2.0 | 6.0 | 0.00 | 0.00 | 0.00 | 45 | 1014.8 |
| 20260505012816 | 68 | 110 | 3.0 | 6.0 | 0.00 | 0.00 | 0.00 | 45 | 1014.7 |
| 20260505012314 | 68 | 86 | 2.0 | 4.0 | 0.00 | 0.00 | 0.00 | 45 | 1014.8 |
| 20260505011809 | 68 | 83 | 3.0 | 4.0 | 0.00 | 0.00 | 0.00 | 45 | 1014.7 |
| 20260505011306 | 68 | 97 | 3.0 | 7.0 | 0.00 | 0.00 | 0.00 | 44 | 1014.7 |
| 20260505010802 | 67 | 109 | 2.0 | 4.0 | 0.00 | 0.00 | 0.00 | 45 | 1014.4 |
| 20260505010258 | 68 | 93 | 3.0 | 4.0 | 0.00 | 0.00 | 0.00 | 45 | 1014.5 |
| 20260505005754 | 68 | 107 | 2.0 | 5.0 | 0.00 | 0.00 | 0.00 | 45 | 1014.5 |
| 20260505005252 | 67 | 93 | 1.0 | 3.0 | 0.00 | 0.00 | 0.00 | 46 | 1014.4 |
| 20260505004749 | 68 | 95 | 2.0 | 3.0 | 0.00 | 0.00 | 0.00 | 45 | 1014.3 |
| 20260505004245 | 68 | 70 | 2.0 | 3.0 | 0.00 | 0.00 | 0.00 | 45 | 1014.4 |
| 20260505003742 | 69 | 122 | 2.0 | 4.0 | 0.00 | 0.00 | 0.00 | 43 | 1014.2 |
| 20260505003240 | 69 | 84 | 1.0 | 4.0 | 0.00 | 0.00 | 0.00 | 43 | 1014.3 |
| 20260505002736 | 69 | 86 | 3.0 | 3.0 | 0.00 | 0.00 | 0.00 | 43 | 1014.4 |
| 20260505002234 | 69 | 83 | 2.0 | 3.0 | 0.00 | 0.00 | 0.00 | 42 | 1014.1 |
| 20260505001731 | 70 | 105 | 2.0 | 3.0 | 0.00 | 0.00 | 0.00 | 41 | 1014.0 |
| 20260505001229 | 71 | 93 | 2.0 | 3.0 | 0.00 | 0.00 | 0.00 | 40 | 1014.0 |
| 20260505000725 | 71 | 82 | 3.0 | 4.0 | 0.00 | 0.00 | 0.00 | 39 | 1014.0 |
| 20260505000226 | 71 | 104 | 2.0 | 3.0 | 0.00 | 0.00 | 0.00 | 39 | 1013.9 |
| 20260504235719 | 72 | 112 | 2.0 | 3.0 | 0.00 | 0.00 | 0.00 | 38 | 1013.9 |
| 20260504235215 | 72 | 83 | 1.0 | 4.0 | 0.00 | 0.00 | 0.00 | 38 | 1014.0 |
| 20260504234713 | 73 | 87 | 4.0 | 4.0 | 0.00 | 0.00 | 0.00 | 37 | 1013.7 |
| 20260504234210 | 73 | 99 | 2.0 | 4.0 | 0.00 | 0.00 | 0.00 | 36 | 1013.8 |
| 20260504233706 | 74 | 84 | 3.0 | 3.0 | 0.00 | 0.00 | 0.00 | 36 | 1013.7 |
| 20260504233202 | 75 | 122 | 2.0 | 3.0 | 0.00 | 0.00 | 0.00 | 33 | 1013.5 |
| 20260504232700 | 75 | 116 | 1.0 | 4.0 | 0.00 | 0.00 | 0.00 | 33 | 1013.7 |
| 20260504232156 | 76 | 146 | 2.0 | 5.0 | 0.00 | 0.00 | 0.00 | 32 | 1013.5 |
| 20260504231653 | 76 | 126 | 4.0 | 4.0 | 0.00 | 0.00 | 0.00 | 30 | 1013.4 |
| 20260504231150 | 76 | 151 | 4.0 | 8.0 | 0.00 | 0.00 | 0.00 | 30 | 1013.6 |
| 20260504230646 | 76 | 111 | 3.0 | 7.0 | 0.00 | 0.00 | 0.00 | 30 | 1013.6 |
| 20260504230145 | 77 | 134 | 5.0 | 11.0 | 0.00 | 0.00 | 0.00 | 29 | 1013.6 |
| 20260504225643 | 78 | 122 | 5.0 | 6.0 | 0.00 | 0.00 | 0.00 | 28 | 1013.7 |
| 20260504225138 | 79 | 133 | 3.0 | 4.0 | 0.00 | 0.00 | 0.00 | 29 | 1013.4 |
| 20260504224635 | 79 | 142 | 3.0 | 6.0 | 0.00 | 0.00 | 0.00 | 29 | 1013.7 |
| 20260504224132 | 79 | 134 | 3.0 | 6.0 | 0.00 | 0.00 | 0.00 | 29 | 1013.6 |
| 20260504223629 | 79 | 112 | 3.0 | 7.0 | 0.00 | 0.00 | 0.00 | 29 | 1013.7 |
| 20260504223125 | 79 | 121 | 2.0 | 9.0 | 0.00 | 0.00 | 0.00 | 30 | 1013.7 |
| 20260504222622 | 78 | 115 | 3.0 | 12.0 | 0.00 | 0.00 | 0.00 | 29 | 1013.6 |
| 20260504222120 | 79 | 187 | 3.0 | 8.0 | 0.00 | 0.00 | 0.00 | 29 | 1013.7 |
| 20260504221616 | 79 | 106 | 3.0 | 12.0 | 0.00 | 0.00 | 0.00 | 29 | 1013.6 |
| 20260504221114 | 79 | 82 | 3.0 | 4.0 | 0.00 | 0.00 | 0.00 | 28 | 1013.5 |
| 20260504220610 | 79 | 134 | 5.0 | 10.0 | 0.00 | 0.00 | 0.00 | 29 | 1013.6 |
| 20260504220108 | 79 | 163 | 8.0 | 9.0 | 0.00 | 0.00 | 0.00 | 29 | 1013.7 |
| 20260504215603 | 79 | 144 | 5.0 | 9.0 | 0.00 | 0.00 | 0.00 | 29 | 1013.7 |
| 20260504215101 | 80 | 162 | 7.0 | 8.0 | 0.00 | 0.00 | 0.00 | 29 | 1013.5 |
| 20260504214557 | 79 | 174 | 9.0 | 11.0 | 0.00 | 0.00 | 0.00 | 29 | 1013.8 |
| 20260504214053 | 80 | 129 | 6.0 | 8.0 | 0.00 | 0.00 | 0.00 | 29 | 1013.7 |
| 20260504213550 | 79 | 140 | 3.0 | 7.0 | 0.00 | 0.00 | 0.00 | 31 | 1013.8 |
| 20260504213047 | 80 | 108 | 7.0 | 11.0 | 0.00 | 0.00 | 0.00 | 29 | 1013.8 |
| 20260504212543 | 80 | 136 | 4.0 | 6.0 | 0.00 | 0.00 | 0.00 | 28 | 1013.9 |
| 20260504212040 | 80 | 140 | 8.0 | 10.0 | 0.00 | 0.00 | 0.00 | 29 | 1013.7 |
| 20260504211537 | 80 | 148 | 4.0 | 9.0 | 0.00 | 0.00 | 0.00 | 29 | 1013.6 |
| 20260504211034 | 80 | 175 | 6.0 | 11.0 | 0.00 | 0.00 | 0.00 | 29 | 1013.6 |
| 20260504210531 | 80 | 107 | 4.0 | 9.0 | 0.00 | 0.00 | 0.00 | 30 | 1013.7 |
| 20260504210027 | 80 | 140 | 5.0 | 8.0 | 0.00 | 0.00 | 0.00 | 30 | 1013.9 |
| 20260504205526 | 79 | 117 | 2.0 | 6.0 | 0.00 | 0.00 | 0.00 | 32 | 1013.8 |
| 20260504205023 | 79 | 102 | 3.0 | 9.0 | 0.00 | 0.00 | 0.00 | 29 | 1013.7 |
| 20260504204521 | 79 | 146 | 6.0 | 9.0 | 0.00 | 0.00 | 0.00 | 30 | 1014.0 |
| 20260504204020 | 80 | 149 | 8.0 | 8.0 | 0.00 | 0.00 | 0.00 | 29 | 1014.0 |
| 20260504203518 | 79 | 214 | 3.0 | 13.0 | 0.00 | 0.00 | 0.00 | 28 | 1014.1 |
| 20260504203015 | 79 | 110 | 2.0 | 15.0 | 0.00 | 0.00 | 0.00 | 32 | 1014.0 |
| 20260504202510 | 79 | 182 | 5.0 | 8.0 | 0.00 | 0.00 | 0.00 | 31 | 1014.2 |
| 20260504202007 | 79 | 193 | 3.0 | 8.0 | 0.00 | 0.00 | 0.00 | 33 | 1014.2 |
| 20260504201504 | 79 | 148 | 5.0 | 9.0 | 0.00 | 0.00 | 0.00 | 32 | 1014.2 |
| 20260504201002 | 79 | 131 | 4.0 | 10.0 | 0.00 | 0.00 | 0.00 | 32 | 1014.1 |
| 20260504200458 | 78 | 137 | 11.0 | 11.0 | 0.00 | 0.00 | 0.00 | 30 | 1014.3 |
| 20260504195955 | 78 | 173 | 5.0 | 14.0 | 0.00 | 0.00 | 0.00 | 30 | 1014.2 |
| 20260504195451 | 78 | 183 | 8.0 | 14.0 | 0.00 | 0.00 | 0.00 | 31 | 1014.2 |
| 20260504194948 | 78 | 204 | 5.0 | 14.0 | 0.00 | 0.00 | 0.00 | 31 | 1014.3 |
| 20260504194444 | 78 | 184 | 7.0 | 7.0 | 0.00 | 0.00 | 0.00 | 31 | 1014.4 |
| 20260504193940 | 77 | 196 | 5.0 | 9.0 | 0.00 | 0.00 | 0.00 | 33 | 1014.6 |
| 20260504193437 | 78 | 146 | 11.0 | 16.0 | 0.00 | 0.00 | 0.00 | 30 | 1014.7 |
| 20260504192936 | 78 | 174 | 6.0 | 13.0 | 0.00 | 0.00 | 0.00 | 31 | 1014.7 |
| 20260504192432 | 77 | 168 | 5.0 | 11.0 | 0.00 | 0.00 | 0.00 | 31 | 1014.6 |
| 20260504191932 | 77 | 142 | 7.0 | 11.0 | 0.00 | 0.00 | 0.00 | 30 | 1014.6 |
| 20260504191430 | 77 | 150 | 3.0 | 11.0 | 0.00 | 0.00 | 0.00 | 29 | 1014.6 |
| 20260504190930 | 77 | 124 | 5.0 | 10.0 | 0.00 | 0.00 | 0.00 | 30 | 1014.6 |
| 20260504190425 | 77 | 139 | 10.0 | 11.0 | 0.00 | 0.00 | 0.00 | 31 | 1014.8 |
| 20260504185923 | 77 | 174 | 6.0 | 9.0 | 0.00 | 0.00 | 0.00 | 32 | 1014.9 |
| 20260504185420 | 77 | 118 | 9.0 | 17.0 | 0.00 | 0.00 | 0.00 | 31 | 1014.9 |
| 20260504184915 | 76 | 151 | 6.0 | 6.0 | 0.00 | 0.00 | 0.00 | 32 | 1014.8 |
| 20260504184411 | 75 | 150 | 6.0 | 7.0 | 0.00 | 0.00 | 0.00 | 30 | 1015.0 |
| 20260504183908 | 76 | 208 | 2.0 | 10.0 | 0.00 | 0.00 | 0.00 | 32 | 1014.8 |
| 20260504183405 | 77 | 134 | 5.0 | 10.0 | 0.00 | 0.00 | 0.00 | 33 | 1015.1 |
| 20260504182903 | 77 | 137 | 2.0 | 12.0 | 0.00 | 0.00 | 0.00 | 30 | 1015.1 |
| 20260504182400 | 76 | 119 | 3.0 | 6.0 | 0.00 | 0.00 | 0.00 | 32 | 1015.3 |
| 20260504181856 | 75 | 84 | 4.0 | 10.0 | 0.00 | 0.00 | 0.00 | 31 | 1015.2 |
| 20260504181354 | 75 | 153 | 6.0 | 11.0 | 0.00 | 0.00 | 0.00 | 30 | 1015.3 |
| 20260504180853 | 76 | 157 | 7.0 | 12.0 | 0.00 | 0.00 | 0.00 | 31 | 1015.4 |
| 20260504180351 | 75 | 120 | 4.0 | 8.0 | 0.00 | 0.00 | 0.00 | 31 | 1015.3 |
| 20260504175849 | 75 | 104 | 4.0 | 13.0 | 0.00 | 0.00 | 0.00 | 33 | 1015.3 |
| 20260504175345 | 75 | 140 | 6.0 | 15.0 | 0.00 | 0.00 | 0.00 | 34 | 1015.3 |
| 20260504174843 | 75 | 76 | 3.0 | 9.0 | 0.00 | 0.00 | 0.00 | 36 | 1015.6 |
| 20260504174341 | 75 | 126 | 6.0 | 9.0 | 0.00 | 0.00 | 0.00 | 33 | 1015.6 |
| 20260504173837 | 74 | 129 | 5.0 | 12.0 | 0.00 | 0.00 | 0.00 | 33 | 1015.5 |
| 20260504173334 | 75 | 238 | 7.0 | 12.0 | 0.00 | 0.00 | 0.00 | 33 | 1015.7 |
| 20260504172831 | 75 | 146 | 5.0 | 8.0 | 0.00 | 0.00 | 0.00 | 35 | 1015.7 |
| 20260504172328 | 75 | 132 | 6.0 | 8.0 | 0.00 | 0.00 | 0.00 | 34 | 1015.8 |
| 20260504171824 | 74 | 285 | 0.0 | 5.0 | 0.00 | 0.00 | 0.00 | 36 | 1015.9 |
| 20260504171321 | 74 | 172 | 9.0 | 14.0 | 0.00 | 0.00 | 0.00 | 34 | 1016.0 |
| 20260504170818 | 74 | 154 | 7.0 | 11.0 | 0.00 | 0.00 | 0.00 | 36 | 1016.2 |
| 20260504170315 | 73 | 138 | 0.0 | 5.0 | 0.00 | 0.00 | 0.00 | 40 | 1016.1 |
| 20260504160233 | 71 | 54 | 7.0 | 10.0 | 0.00 | 0.00 | 0.00 | 45 | 1016.7 |